TimeEDT,TemperatureF,Dew PointF,Humidity,Sea Level PressureIn,VisibilityMPH,Wind Direction,Wind SpeedMPH,Gust SpeedMPH,PrecipitationIn,Events,Conditions,WindDirDegrees,DateUTC
12:51 AM,78.8,75.2,89,29.93,10.0,ESE,8.1,-,0.00,,Mostly Cloudy,120,2012-10-15 04:51:00
12:53 AM,78.1,75.0,90,29.93,10.0,ESE,6.9,-,0.00,,Mostly Cloudy,110,2012-10-15 04:53:00
1:02 AM,78.8,75.2,89,29.93,10.0,East,4.6,-,0.00,Rain,Light Rain,90,2012-10-15 05:02:00
1:30 AM,78.8,75.2,89,29.92,10.0,SE,6.9,-,0.02,,Overcast,130,2012-10-15 05:30:00
1:53 AM,77.0,75.0,94,29.92,10.0,ESE,3.5,-,0.06,,Mostly Cloudy,120,2012-10-15 05:53:00
2:53 AM,75.9,73.9,94,29.90,10.0,Calm,Calm,-,0.01,,Mostly Cloudy,0,2012-10-15 06:53:00
3:53 AM,75.0,73.9,96,29.88,10.0,Calm,Calm,-,N/A,,Scattered Clouds,0,2012-10-15 07:53:00
4:53 AM,75.0,73.9,96,29.87,10.0,Calm,Calm,-,N/A,,Partly Cloudy,0,2012-10-15 08:53:00
5:53 AM,75.0,73.9,96,29.86,9.0,Calm,Calm,-,N/A,,Clear,0,2012-10-15 09:53:00
6:53 AM,73.9,73.0,97,29.87,10.0,Calm,Calm,-,N/A,,Clear,0,2012-10-15 10:53:00
7:53 AM,73.0,73.0,100,29.88,10.0,Calm,Calm,-,N/A,,Clear,0,2012-10-15 11:53:00
8:53 AM,78.1,75.0,90,29.88,10.0,NNE,5.8,-,N/A,,Clear,30,2012-10-15 12:53:00
9:53 AM,82.0,75.9,82,29.90,10.0,NE,8.1,-,N/A,,Scattered Clouds,40,2012-10-15 13:53:00
10:39 AM,82.4,75.2,79,29.89,10.0,NE,5.8,-,N/A,,Mostly Cloudy,40,2012-10-15 14:39:00
10:53 AM,84.0,75.0,74,29.90,10.0,NE,8.1,-,N/A,,Mostly Cloudy,50,2012-10-15 14:53:00
11:07 AM,84.2,75.2,74,29.90,10.0,NE,10.4,-,N/A,,Mostly Cloudy,50,2012-10-15 15:07:00
11:53 AM,87.1,75.0,67,29.89,10.0,East,11.5,-,N/A,,Mostly Cloudy,90,2012-10-15 15:53:00
12:53 PM,86.0,72.0,63,29.87,10.0,ENE,10.4,-,N/A,,Scattered Clouds,70,2012-10-15 16:53:00
1:53 PM,88.0,72.0,59,29.85,10.0,ENE,9.2,-,N/A,,Scattered Clouds,60,2012-10-15 17:53:00
2:53 PM,89.1,72.0,57,29.82,10.0,East,12.7,-,N/A,,Scattered Clouds,80,2012-10-15 18:53:00
3:53 PM,88.0,71.1,57,29.80,10.0,NNE,11.5,-,N/A,,Partly Cloudy,30,2012-10-15 19:53:00
4:53 PM,87.1,71.1,59,29.80,10.0,East,9.2,-,N/A,,Partly Cloudy,80,2012-10-15 20:53:00
5:53 PM,82.9,71.1,67,29.79,10.0,ENE,8.1,-,N/A,,Clear,70,2012-10-15 21:53:00
6:53 PM,82.0,71.1,69,29.80,10.0,East,9.2,-,N/A,,Clear,80,2012-10-15 22:53:00
7:53 PM,80.1,71.1,74,29.81,10.0,East,6.9,-,N/A,,Clear,80,2012-10-15 23:53:00
8:53 PM,79.0,72.0,79,29.82,10.0,NE,5.8,-,N/A,,Clear,50,2012-10-16 00:53:00
9:53 PM,78.1,72.0,81,29.83,10.0,Calm,Calm,-,N/A,,Clear,0,2012-10-16 01:53:00
10:53 PM,77.0,72.0,84,29.84,10.0,North,4.6,-,N/A,,Clear,360,2012-10-16 02:53:00
11:53 PM,75.9,72.0,87,29.84,10.0,North,3.5,-,N/A,,Clear,350,2012-10-16 03:53:00